GW0656 Weather Reports


time (UTC)temp
C
wind
direction
speed
KPH
gust
KPH
rain 1hr
cm
rain 24hr
cm
rain mn
cm
humidity
%
barometer
mb
20260906115526 20 46 1.6 4.8 0.03 0.10 0.03 96 1013.6
20260906115024 20 61 1.6 4.8 0.03 0.10 0.03 95 1013.4
20260906114546 20 74 0.0 1.6 0.03 0.10 0.03 95 1013.5
20260906114023 20 0 0.0 1.6 0.00 0.08 0.00 95 1013.5
20260906113522 20 0 0.0 1.6 0.00 0.08 0.00 95 1013.4
20260906113044 20 0 0.0 1.6 0.00 0.08 0.00 95 1013.4
20260906112525 20 0 0.0 1.6 0.00 0.08 0.00 95 1013.3
20260906112024 20 0 0.0 1.6 0.00 0.08 0.00 95 1013.3
20260906111553 20 0 0.0 3.2 0.00 0.08 0.00 95 1013.2
20260906111025 20 0 0.0 3.2 0.00 0.08 0.00 95 1013.0
20260906110524 20 74 0.0 1.6 0.00 0.08 0.00 95 1012.9
20260906110053 20 0 0.0 0.0 0.00 0.08 0.00 95 1012.9
20260906105526 20 0 0.0 0.0 0.00 0.08 0.00 95 1012.9
20260906105026 20 0 0.0 3.2 0.00 0.08 0.00 95 1012.7
20260906104540 20 0 0.0 3.2 0.00 0.08 0.00 95 1012.8
20260906104023 20 0 1.6 3.2 0.00 0.08 0.00 95 1012.8
20260906103524 20 0 0.0 3.2 0.00 0.08 0.00 95 1012.7
20260906103044 20 74 1.6 3.2 0.00 0.08 0.00 95 1012.5
20260906102524 20 74 0.0 3.2 0.00 0.08 0.00 95 1012.5
20260906102024 20 0 0.0 3.2 0.00 0.08 0.00 94 1012.5
20260906101541 20 74 0.0 1.6 0.00 0.08 0.00 94 1012.5
20260906101024 20 0 0.0 0.0 0.00 0.08 0.00 94 1012.3
20260906100528 20 0 0.0 0.0 0.00 0.08 0.00 94 1012.3
20260906100047 20 0 0.0 0.0 0.00 0.08 0.00 95 1012.2
20260906095521 20 0 0.0 0.0 0.00 0.08 0.00 95 1012.4
20260906095027 20 0 0.0 0.0 0.00 0.08 0.00 95 1012.3
20260906094603 20 0 0.0 1.6 0.00 0.08 0.00 95 1012.4
20260906094024 20 0 0.0 1.6 0.00 0.08 0.00 95 1012.3
20260906093524 20 0 0.0 1.6 0.00 0.08 0.00 94 1012.2
20260906093056 20 0 0.0 1.6 0.00 0.08 0.00 94 1012.3
20260906092524 20 0 0.0 1.6 0.00 0.08 0.00 94 1012.2
20260906092025 20 0 0.0 0.0 0.00 0.08 0.00 94 1012.2
20260906091543 20 0 0.0 0.0 0.00 0.08 0.00 94 1012.2
20260906091025 21 0 0.0 1.6 0.00 0.08 0.00 94 1012.2
20260906090525 21 0 0.0 1.6 0.00 0.08 0.00 94 1012.2
20260906090109 21 0 0.0 1.6 0.00 0.08 0.00 94 1012.2
20260906085524 21 0 0.0 0.0 0.00 0.08 0.00 94 1012.1
20260906085025 21 0 0.0 3.2 0.00 0.08 0.00 94 1012.1
20260906084553 21 0 0.0 3.2 0.00 0.08 0.00 94 1011.9
20260906084025 21 74 1.6 3.2 0.00 0.08 0.00 94 1011.9
20260906083524 21 74 0.0 3.2 0.00 0.08 0.00 93 1012.0
20260906083044 21 74 1.6 3.2 0.00 0.08 0.00 93 1012.1
20260906082524 21 74 0.0 3.2 0.00 0.08 0.00 93 1012.0
20260906082025 21 0 0.0 1.6 0.00 0.08 0.00 93 1012.0
20260906081543 21 74 0.0 1.6 0.00 0.08 0.00 93 1011.9
20260906081026 21 0 0.0 1.6 0.00 0.08 0.00 93 1011.9
20260906080527 21 0 0.0 1.6 0.00 0.08 0.00 93 1011.9
20260906080042 21 0 0.0 3.2 0.00 0.08 0.00 93 1011.9
20260906075527 21 74 0.0 3.2 0.00 0.08 0.00 93 1012.0
20260906075024 21 74 1.6 4.8 0.00 0.08 0.00 93 1012.1
20260906074552 21 74 1.6 6.4 0.00 0.08 0.00 94 1012.1
20260906074024 21 40 1.6 8.0 0.00 0.08 0.00 94 1011.9
20260906073524 21 19 3.2 8.0 0.00 0.08 0.00 94 1011.9
20260906073044 21 46 3.2 8.0 0.00 0.08 0.00 94 1011.9
20260906072524 21 42 4.8 6.4 0.00 0.08 0.00 94 1011.9
20260906072025 21 15 0.0 4.8 0.00 0.08 0.00 94 1011.9
20260906071543 21 15 1.6 4.8 0.00 0.08 0.00 94 1012.1
20260906071024 21 15 1.6 4.8 0.00 0.08 0.00 94 1012.1
20260906070525 21 15 1.6 4.8 0.00 0.08 0.00 94 1012.2
20260906070047 21 0 0.0 4.8 0.00 0.08 0.00 94 1012.2
20260906065527 21 323 0.0 4.8 0.00 0.08 0.00 94 1012.3
20260906065026 21 323 0.0 6.4 0.00 0.08 0.00 94 1012.3
20260906064543 21 323 3.2 6.4 0.00 0.08 0.00 94 1012.3
20260906064027 21 20 3.2 6.4 0.00 0.08 0.00 94 1012.3
20260906063526 21 0 0.0 3.2 0.00 0.08 0.00 94 1012.2
20260906063043 21 171 0.0 3.2 0.00 0.08 0.00 94 1012.1
20260906062524 21 171 1.6 3.2 0.00 0.08 0.00 94 1012.0
20260906062021 21 171 1.6 3.2 0.00 0.08 0.00 94 1011.9
20260906061548 21 0 1.6 3.2 0.00 0.08 0.00 93 1011.8
20260906061021 21 171 0.0 1.6 0.00 0.08 0.00 93 1011.8
20260906060525 21 0 0.0 0.0 0.00 0.08 0.00 93 1011.8
20260906060048 21 0 0.0 1.6 0.00 0.08 0.00 93 1012.0
20260906055523 21 0 0.0 1.6 0.00 0.08 0.00 93 1011.9
20260906055024 21 0 0.0 1.6 0.00 0.08 0.00 93 1011.9
20260906054544 21 0 0.0 1.6 0.00 0.08 0.00 93 1011.8
20260906054025 21 0 0.0 6.4 0.00 0.08 0.00 93 1011.8
20260906053530 21 0 0.0 6.4 0.00 0.08 0.00 93 1011.9
20260906053050 21 171 0.0 3.2 0.00 0.08 0.00 93 1012.0
20260906052524 21 0 0.0 3.2 0.00 0.08 0.00 93 1012.0
20260906052024 21 171 0.0 3.2 0.00 0.08 0.00 93 1012.1
20260906051544 22 171 0.0 6.4 0.00 0.08 0.00 93 1012.1
20260906051024 22 126 1.6 6.4 0.00 0.08 0.00 93 1012.1
20260906050525 22 171 1.6 6.4 0.00 0.08 0.00 93 1012.2
20260906050044 22 0 0.0 4.8 0.00 0.08 0.00 93 1012.2
20260906045525 22 134 0.0 8.0 0.00 0.08 0.00 93 1012.3
20260906045025 22 134 3.2 8.0 0.00 0.08 0.00 93 1012.4
20260906044541 22 166 1.6 6.4 0.00 0.08 0.00 93 1012.4
20260906044023 22 189 0.0 3.2 0.00 0.08 0.00 93 1012.2
20260906043523 22 0 0.0 6.4 0.00 0.08 0.00 93 1012.1
20260906043045 22 0 1.6 6.4 0.00 0.08 0.00 93 1012.0
20260906042524 22 93 0.0 3.2 0.00 0.08 0.00 92 1012.1
20260906042024 22 0 0.0 3.2 0.00 0.08 0.00 92 1012.1
20260906041608 22 190 0.0 3.2 0.00 0.08 0.00 92 1012.2
20260906041023 22 0 0.0 3.2 0.00 0.08 0.00 92 1012.1
20260906040524 22 190 0.0 3.2 0.00 0.08 0.00 92 1012.1
20260906040043 22 0 0.0 0.0 0.00 0.08 0.00 91 1012.1
20260906035531 22 0 0.0 0.0 0.00 0.08 0.08 91 1012.2
20260906035024 22 0 0.0 0.0 0.00 0.08 0.08 91 1012.2
20260906034543 22 0 0.0 0.0 0.00 0.08 0.08 91 1012.1
20260906034024 22 0 0.0 3.2 0.00 0.08 0.08 91 1012.0
20260906033524 22 0 0.0 3.2 0.00 0.08 0.08 91 1012.0
20260906033047 22 190 1.6 3.2 0.00 0.08 0.08 91 1012.0
20260906032524 22 190 0.0 3.2 0.00 0.08 0.08 91 1012.0
20260906032024 22 190 0.0 1.6 0.00 0.08 0.08 91 1012.0
20260906031543 22 0 0.0 1.6 0.00 0.08 0.08 90 1011.9
20260906031024 22 0 0.0 3.2 0.00 0.08 0.08 90 1012.0
20260906030522 22 190 0.0 4.8 0.00 0.08 0.08 90 1012.1
20260906030049 22 0 0.0 6.4 0.00 0.08 0.08 90 1012.1
20260906025524 22 0 1.6 6.4 0.00 0.08 0.08 90 1012.2
20260906025025 22 129 3.2 11.3 0.00 0.08 0.08 90 1012.2
20260906024607 23 129 4.8 11.3 0.00 0.08 0.08 90 1012.3
20260906024023 23 169 4.8 11.3 0.00 0.08 0.08 89 1012.2
20260906023523 23 0 0.0 3.2 0.05 0.08 0.08 88 1012.1
20260906023045 23 0 0.0 3.2 0.05 0.08 0.08 88 1012.1
20260906022521 23 124 0.0 1.6 0.05 0.08 0.08 87 1012.1
20260906022022 23 0 0.0 9.7 0.05 0.08 0.08 87 1012.0
20260906021540 23 124 3.2 9.7 0.08 0.08 0.08 86 1012.2
20260906021023 23 175 4.8 9.7 0.08 0.08 0.08 86 1012.2
20260906020523 24 187 0.0 6.4 0.08 0.08 0.08 85 1012.2
20260906020046 24 0 0.0 11.3 0.08 0.08 0.08 85 1012.2
20260906015524 24 181 3.2 11.3 0.08 0.08 0.08 85 1012.2
20260906015024 25 142 3.2 19.3 0.08 0.08 0.08 84 1012.2
20260906014549 25 0 6.4 25.7 0.08 0.08 0.08 83 1012.0
20260906014024 25 84 6.4 25.7 0.05 0.05 0.05 81 1012.3
20260906013527 26 271 12.9 22.5 0.03 0.03 0.03 80 1012.3
20260906013041 26 257 0.0 14.5 0.03 0.03 0.03 76 1011.2
20260906012523 27 142 6.4 12.9 0.03 0.03 0.03 74 1011.0
20260906012023 27 96 0.0 4.8 0.03 0.03 0.03 76 1011.1
20260906011555 27 0 1.6 4.8 0.00 0.00 0.00 78 1010.9
20260906011022 27 113 1.6 4.8 0.00 0.00 0.00 78 1010.9
20260906010526 28 0 0.0 3.2 0.00 0.00 0.00 81 1010.9
20260906010119 28 125 0.0 3.2 0.00 0.00 0.00 80 1010.7
20260906005524 28 0 0.0 3.2 0.00 0.00 0.00 79 1010.7
20260906005024 28 0 0.0 3.2 0.00 0.00 0.00 78 1010.6
20260906004546 28 125 0.0 4.8 0.00 0.00 0.00 77 1010.6
20260906004026 28 125 1.6 4.8 0.00 0.00 0.00 79 1010.6
20260906003523 29 125 1.6 4.8 0.00 0.00 0.00 78 1010.7
20260906003047 29 125 1.6 3.2 0.00 0.00 0.00 76 1010.8
20260906002523 29 82 0.0 3.2 0.00 0.00 0.00 71 1010.7
20260906002022 29 0 0.0 4.8 0.00 0.00 0.00 71 1010.8
20260906001559 29 82 1.6 4.8 0.00 0.00 0.00 71 1010.8
20260906001022 30 307 1.6 3.2 0.00 0.00 0.00 74 1011.0
20260906000523 30 307 0.0 3.2 0.00 0.00 0.00 72 1011.0
20260906000046 30 307 1.6 3.2 0.00 0.00 0.00 70 1011.1
20260905235524 31 0 0.0 3.2 0.00 0.00 0.00 72 1011.4
20260905235024 31 0 0.0 3.2 0.00 0.00 0.00 69 1011.4
20260905234544 31 0 0.0 3.2 0.00 0.00 0.00 67 1011.3
20260905234025 31 0 0.0 3.2 0.00 0.00 0.00 66 1011.3
20260905233524 31 128 0.0 3.2 0.00 0.00 0.00 68 1011.3
20260905233043 31 19 1.6 3.2 0.00 0.00 0.00 68 1011.4
20260905232529 32 19 1.6 3.2 0.00 0.00 0.00 64 1011.3
20260905232022 32 0 0.0 3.2 0.00 0.00 0.00 67 1011.2
20260905231545 32 0 0.0 4.8 0.00 0.00 0.00 63 1011.2
20260905231024 32 19 0.0 4.8 0.00 0.00 0.00 63 1011.2
20260905230523 32 19 1.6 4.8 0.00 0.00 0.00 62 1011.0
20260905230052 33 19 0.0 6.4 0.00 0.00 0.00 62 1010.8
20260905225520 33 19 1.6 6.4 0.00 0.00 0.00 59 1010.9
20260905225025 33 19 1.6 6.4 0.00 0.00 0.00 58 1010.8
20260905224546 33 19 0.0 4.8 0.00 0.00 0.00 59 1010.9
20260905224024 33 19 0.0 6.4 0.00 0.00 0.00 61 1010.9
20260905223527 33 19 1.6 8.0 0.00 0.00 0.00 58 1010.9
20260905223044 33 340 3.2 8.0 0.00 0.00 0.00 58 1010.9
20260905222525 33 334 3.2 12.9 0.00 0.00 0.00 59 1010.9
20260905222020 33 360 3.2 12.9 0.00 0.00 0.00 57 1010.9
20260905221551 33 313 4.8 12.9 0.00 0.00 0.00 55 1011.0
20260905221024 33 0 1.6 9.7 0.00 0.00 0.00 58 1011.0
20260905220520 33 340 3.2 9.7 0.00 0.00 0.00 58 1010.8
20260905220047 33 323 3.2 6.4 0.00 0.00 0.00 57 1010.9
20260905215524 33 280 3.2 16.1 0.00 0.00 0.00 55 1011.0
20260905215023 34 292 1.6 16.1 0.00 0.00 0.00 55 1011.1
20260905214544 34 323 8.0 16.1 0.00 0.00 0.00 54 1011.2
20260905214024 34 298 1.6 6.4 0.00 0.00 0.00 55 1011.1
20260905213519 35 267 3.2 11.3 0.00 0.00 0.00 53 1011.0
20260905213055 35 297 4.8 14.5 0.00 0.00 0.00 53 1011.1
20260905212519 35 307 6.4 14.5 0.00 0.00 0.00 54 1011.1
20260905212019 34 0 1.6 6.4 0.00 0.00 0.00 55 1011.0
20260905211545 34 11 1.6 8.0 0.00 0.00 0.00 54 1011.1
20260905211024 34 327 1.6 12.9 0.00 0.00 0.00 55 1011.1
20260905210525 35 338 6.4 12.9 0.00 0.00 0.00 53 1011.1
20260905210041 35 275 3.2 16.1 0.00 0.00 0.00 55 1011.2
20260905205527 35 18 9.7 16.1 0.00 0.00 0.00 53 1011.2
20260905205024 35 331 4.8 16.1 0.00 0.00 0.00 53 1011.2
20260905204546 35 344 1.6 8.0 0.00 0.00 0.00 54 1011.3
20260905204020 35 287 3.2 8.0 0.00 0.00 0.00 54 1011.3
20260905203520 35 74 4.8 12.9 0.00 0.00 0.00 54 1011.5
20260905203052 35 0 1.6 12.9 0.00 0.00 0.00 53 1011.5
20260905202528 35 292 1.6 12.9 0.00 0.00 0.00 56 1011.5
20260905202024 35 321 4.8 12.9 0.00 0.00 0.00 54 1011.7
20260905201555 35 340 4.8 11.3 0.00 0.00 0.00 56 1011.7
20260905201024 34 222 0.0 12.9 0.00 0.00 0.00 56 1011.8
20260905200523 34 0 1.6 12.9 0.00 0.00 0.00 54 1011.8
20260905200044 34 296 4.8 12.9 0.00 0.00 0.00 55 1011.9
20260905195526 34 279 6.4 12.9 0.00 0.00 0.00 54 1011.9
20260905195026 34 221 3.2 11.3 0.00 0.00 0.00 57 1012.0
20260905194545 34 145 3.2 11.3 0.00 0.00 0.00 55 1012.1
20260905194024 34 302 3.2 17.7 0.00 0.00 0.00 58 1012.3
20260905193524 34 273 9.7 17.7 0.00 0.00 0.00 55 1012.3
20260905193042 34 188 4.8 12.9 0.00 0.00 0.00 59 1012.3
20260905192524 33 313 1.6 14.5 0.00 0.00 0.00 56 1012.3
20260905192024 34 350 8.0 14.5 0.00 0.00 0.00 55 1012.3
20260905191541 34 278 1.6 14.5 0.00 0.00 0.00 58 1012.3
20260905191021 34 275 3.2 14.5 0.00 0.00 0.00 57 1012.4
20260905190523 33 276 1.6 8.0 0.00 0.00 0.00 56 1012.5
20260905190045 33 163 1.6 8.0 0.00 0.00 0.00 58 1012.7
20260905185526 33 285 4.8 9.7 0.00 0.00 0.00 58 1012.7
20260905185025 33 279 4.8 9.7 0.00 0.00 0.00 57 1012.8
20260905184549 33 139 3.2 8.0 0.00 0.00 0.00 57 1012.9
20260905184024 33 178 1.6 9.7 0.00 0.00 0.00 58 1013.0
20260905183524 33 177 3.2 9.7 0.00 0.00 0.00 58 1013.0
20260905183101 33 288 1.6 6.4 0.00 0.00 0.00 58 1013.0
20260905182525 33 0 3.2 8.0 0.00 0.00 0.00 59 1013.0
20260905182029 32 179 3.2 8.0 0.00 0.00 0.00 57 1013.1
20260905181544 32 192 3.2 9.7 0.00 0.00 0.00 59 1013.2
20260905181023 32 97 3.2 11.3 0.00 0.00 0.00 60 1013.3
20260905180526 32 200 4.8 11.3 0.00 0.00 0.00 61 1013.5
20260905180050 32 126 4.8 11.3 0.00 0.00 0.00 61 1013.5
20260905175530 32 0 3.2 11.3 0.00 0.00 0.00 61 1013.5
20260905175024 32 249 4.8 9.7 0.00 0.00 0.00 62 1013.6
20260905174543 31 157 1.6 8.0 0.00 0.00 0.00 65 1013.7
20260905174024 31 87 3.2 8.0 0.00 0.00 0.00 60 1013.8
20260905173524 31 350 3.2 8.0 0.00 0.00 0.00 62 1013.8
20260905173043 31 302 3.2 12.9 0.00 0.00 0.00 63 1013.9
20260905172524 31 72 6.4 14.5 0.00 0.00 0.00 62 1014.0
20260905172025 31 100 8.0 14.5 0.00 0.00 0.00 62 1013.9
20260905171543 31 9 1.6 11.3 0.00 0.00 0.00 62 1014.0
20260905171023 31 38 3.2 11.3 0.00 0.00 0.00 62 1014.1
20260905170524 31 75 3.2 11.3 0.00 0.00 0.00 66 1014.1
20260905170058 31 0 1.6 9.7 0.00 0.00 0.00 66 1014.2
20260905165523 31 5 1.6 9.7 0.00 0.00 0.00 66 1014.3
20260905165024 30 268 3.2 14.5 0.00 0.00 0.00 66 1014.3
20260905164544 30 0 1.6 14.5 0.00 0.00 0.00 66 1014.4
20260905164023 30 55 1.6 14.5 0.00 0.00 0.00 68 1014.5
20260905163528 30 44 4.8 14.5 0.00 0.00 0.00 67 1014.5
20260905163042 30 49 6.4 14.5 0.00 0.00 0.00 66 1014.6
20260905162526 30 74 6.4 16.1 0.00 0.00 0.00 67 1014.7
20260905162023 30 84 3.2 16.1 0.00 0.00 0.00 66 1014.6
20260905161547 30 138 9.7 16.1 0.00 0.00 0.00 68 1014.5
20260905161028 29 133 1.6 12.9 0.00 0.00 0.00 69 1014.5
20260905160530 29 134 6.4 12.9 0.00 0.00 0.00 70 1014.5
20260905160107 29 0 1.6 12.9 0.00 0.00 0.00 70 1014.6
20260905155528 28 71 6.4 12.9 0.00 0.00 0.00 71 1014.7
20260905155022 28 69 8.0 12.9 0.00 0.00 0.00 70 1014.7
20260905154551 28 46 4.8 11.3 0.00 0.00 0.00 72 1014.7
20260905154022 28 63 1.6 12.9 0.00 0.00 0.00 75 1014.9
20260905153524 28 32 4.8 14.5 0.00 0.00 0.00 75 1014.9
20260905153041 27 360 6.4 14.5 0.00 0.00 0.00 74 1014.9
20260905152525 27 48 4.8 16.1 0.00 0.00 0.00 75 1015.0
20260905152024 27 28 8.0 16.1 0.00 0.00 0.00 75 1015.0
20260905151550 27 34 6.4 16.1 0.00 0.00 0.00 76 1015.1
20260905151025 27 75 8.0 17.7 0.00 0.00 0.00 77 1015.1
20260905150525 26 44 6.4 17.7 0.00 0.00 0.00 76 1015.1
20260905150051 26 69 8.0 19.3 0.00 0.00 0.00 76 1015.0
20260905145523 26 94 11.3 25.7 0.00 0.00 0.00 76 1015.0
20260905145024 27 79 14.5 25.7 0.00 0.00 0.00 75 1015.1
20260905144543 27 63 12.9 24.1 0.00 0.00 0.00 75 1015.0
20260905144021 27 71 9.7 24.1 0.00 0.00 0.00 76 1015.0
20260905143524 27 24 9.7 27.4 0.00 0.00 0.00 76 1015.0
20260905143042 27 103 12.9 27.4 0.00 0.00 0.00 77 1014.8
20260905142524 27 83 14.5 27.4 0.00 0.00 0.00 75 1015.0
20260905142025 27 44 12.9 24.1 0.00 0.00 0.00 75 1015.3
20260905141546 27 67 14.5 22.5 0.00 0.00 0.00 75 1015.0
20260905141027 27 65 14.5 30.6 0.00 0.00 0.00 75 1015.2
20260905140525 27 26 12.9 30.6 0.00 0.00 0.00 76 1015.1
20260905140049 27 48 9.7 19.3 0.00 0.00 0.00 78 1015.1
20260905135526 27 69 9.7 17.7 0.00 0.00 0.00 79 1015.0
20260905135025 27 48 4.8 11.3 0.00 0.00 0.00 80 1015.2
20260905134548 27 63 4.8 9.7 0.00 0.00 0.00 79 1015.0
20260905134024 27 76 4.8 8.0 0.00 0.00 0.00 81 1014.8
20260905133525 27 121 3.2 12.9 0.00 0.00 0.00 82 1014.8
20260905133047 26 67 4.8 12.9 0.00 0.00 0.00 83 1014.9
20260905132525 26 80 3.2 8.0 0.00 0.00 0.00 84 1015.0
20260905132027 26 80 1.6 8.0 0.00 0.00 0.00 85 1014.9
20260905131545 26 42 3.2 6.4 0.00 0.00 0.00 86 1015.0
20260905131026 25 48 1.6 14.5 0.00 0.00 0.00 86 1014.9
20260905130524 25 44 3.2 17.7 0.00 0.00 0.00 86 1015.0
20260905130044 25 57 8.0 17.7 0.00 0.00 0.00 87 1015.0
20260905125526 25 52 4.8 9.7 0.00 0.00 0.00 89 1015.1
20260905125025 25 39 1.6 12.9 0.00 0.00 0.00 90 1014.9
20260905124540 24 21 6.4 17.7 0.00 0.00 0.00 92 1014.8
20260905124024 23 49 8.0 17.7 0.00 0.00 0.00 94 1014.9
20260905123523 23 82 0.0 3.2 0.00 0.00 0.00 95 1014.8
20260905123045 23 0 0.0 3.2 0.00 0.00 0.00 95 1014.6
20260905122525 23 0 0.0 3.2 0.00 0.00 0.00 95 1014.6
20260905122028 23 0 0.0 3.2 0.00 0.00 0.00 95 1014.7
20260905121545 22 0 0.0 0.0 0.00 0.00 0.00 94 1014.5
20260905121030 22 0 0.0 0.0 0.00 0.00 0.00 94 1014.4
20260905120526 22 0 0.0 0.0 0.00 0.00 0.00 94 1014.4
20260905120042 22 0 0.0 3.2 0.00 0.00 0.00 93 1014.4